Back to catalog

STARLINK-6286

AliveCommunicationsVLEO
NORAD 56558·PAYLOAD·🇺🇸 United States

Launched May 14, 2023 from Cape Canaveral Space Force Station

Loading…

Next Passes (next 24 hours)

TLE

FreshSource: CelesTrak SupGP

Epoch: Sep 14, 2026, 14:18 UTC

1 56558C 23065BH  26257.59631944 -.00044611  00000+0 -16158-2 0  2575
2 56558  43.0022 240.1655 0001474 275.4907  46.5804 15.27601015    11

Track STARLINK-6286 in real time with AllMySat

Download on the App Store